Location: Cahas Mountain Overlook
(37.0833°N, 80.1000°W)
Time: 13:53:24
(UTC-05:00)

S-56A Canister/Altair - Pass Details

Date: 29 November 2023
Orbit: 639 x 2488 km, 38.9° (Epoch: 03 March)

Event Time Altitude Azimuth Distance (km) Brightness Sun altitude
Rises 13:35:01 0° 242° (WSW) 2,939 11.3 28.0°
Reaches altitude 10° 13:37:16 10° 239° (WSW) 2,016 10.7 27.8°
Maximum altitude 13:41:40 63° 158° (SSE) 751 8.3 27.4°
Drops below altitude 10° 13:46:48 10° 78° (ENE) 2,355 9.8 27.0°
Sets 13:49:38 0° 75° (ENE) 3,490 10.5 26.7°
